Regional Weather Roundup
Issued by NWS Sterling, VA

Home | Current Version | Previous Version | Graphics & Text | Print | Product List | Glossary On
Versions: 1 2 3 4 5 6 7 8 9 10 11 12 13 14 15 16 17 18 19 20 21 22 23 24 25 26 27 28 29 30 31 32 33 34 35 36 37 38 39 40 41 42 43 44 45 46 47 48 49 50
000
ASUS41 KLWX 210610
RWRLWX

REGIONAL WEATHER ROUNDUP
NATIONAL WEATHER SERVICE BALTIMORE MD/WASHINGTON DC
200 AM EDT TUE APR 21 2015

Note: "FAIR" indicates few or no clouds below 12,000 feet
with no significant weather and/or obstructions to visibility.
 TC=TEMPERATURE CELSIUS

 * =Non NWS site. Station does not report precipitation (e.g. rain,
    snow, etc.), thunder, or fog.

DCZ001-MDZ009-015-VAZ040>042-051-053>054-210700-
WASHINGTON METRO

CITY           SKY/WX    TMP DP  RH WIND       PRES   REMARKS
WASHINGTON NAT TSTM      62  56  80 N5        29.61R
DULLES         LGT RAIN  59  54  83 CALM      29.60F
ANDREWS AFB    TSTM      59  57  94 NW5       29.60R
FT BELVOIR     MOCLDY    61  57  88 CALM      29.61R
QUANTICO       TSTM      65  55  70 N5        29.61R
COLLEGE PARK*  CLOUDY    61  55  82 NW3       29.60R
LEESBURG*      CLOUDY    61  57  88 CALM      29.62R
MANASSAS*      MOCLDY    61  57  88 CALM      29.61S
GAITHERSBURG*  MOCLDY    57  52  82 W3        29.64R

$$

MDZ006>007-011-014-210700-
BALTIMORE METRO

CITY           SKY/WX    TMP DP  RH WIND       PRES   REMARKS
BWI AIRPORT    TSTM      60  55  83 W3        29.59R
MD SCIENCE CTR   N/A     64  52  64 MISG      29.58S
MARTIN STATE   RAIN      61  57  88 NW3       29.59R
ANNAPOLIS      LGT RAIN  61  55  81 NW7       29.59R
FORT MEADE*    CLOUDY    57  55  94 CALM      29.61S

$$

MDZ012-015-019>023-210700-
MARYLAND EASTERN SHORE

CITY           SKY/WX    TMP DP  RH WIND       PRES   REMARKS
OCEAN CITY     FAIR      64  60  87 SW9       29.60F
SALISBURY      FAIR      68  60  75 SW12      29.59S
BAY BRIDGE AP*   N/A    N/A N/A N/A NW6       29.60R
CAMBRIDGE*     FAIR      72  59  64 S13G20    29.58S
EASTON*        FAIR      70  61  72 SW13G22   29.61R

$$

MDZ017>025-210700-
SOUTHERN MARYLAND

CITY           SKY/WX    TMP DP  RH WIND       PRES   REMARKS
PATUXENT RIVER FAIR      68  59  73 SW13G24   29.58S
ST INIGOES     FAIR      68  59  73 SW13      29.58F
LEONARDTOWN*   FAIR      68  55  64 SW9G17    29.60S

$$

MDZ003>005-210700-
NORTH CENTRAL MARYLAND

CITY           SKY/WX    TMP DP  RH WIND       PRES   REMARKS
FREDERICK*     MOCLDY    57  52  82 CALM      29.62F
HAGERSTOWN APT CLOUDY    59  52  77 SW5       29.60S
WESTMINSTER*   LGT RAIN  57  55  94 N5        29.58F

$$

MDZ501>502-210700-
WESTERN MARYLAND

CITY           SKY/WX    TMP DP  RH WIND       PRES   REMARKS
OAKLAND*       CLOUDY    41 N/A N/A W10G24    29.69R
CUMBERLAND*    MOCLDY    55  45  67 W7        29.70R

$$

VAZ025>031-210700-
SHENANDOAH VALLEY

CITY           SKY/WX    TMP DP  RH WIND       PRES   REMARKS
WINCHESTER*    CLOUDY    61  46  59 W7        29.63R
FRONT ROYAL*   MOCLDY    55  54  94 CALM      29.61S
LURAY*         CLOUDY    61  54  77 SW8       29.64R
NEW MARKET*    CLOUDY    60  47  60 W10G24    29.64R
STAUNTON*      CLOUDY    55  50  83 SW5       29.69R
WAYNESBORO*    NOT AVBL

$$

WVZ021-048>050-054>055-210700-
EASTERN WEST VIRGINIA PANHANDLE

CITY           SKY/WX    TMP DP  RH WIND       PRES   REMARKS
MARTINSBURG    CLOUDY    59  52  77 W16       29.63R
PETERSBURG*    NOT AVBL

$$

VAZ036>039-050-210700-
CENTRAL FOOTHILLS

CITY           SKY/WX    TMP DP  RH WIND       PRES   REMARKS
CHARLOTTESVILL MOCLDY    59  52  77 VRB5      29.63R
CULPEPER*      MOCLDY    64  55  72 N3        29.61R
ORANGE*        MOCLDY    59  55  88 SE5       29.64R
GORDONSVILLE*  CLOUDY    61  51  70 CALM      29.62S
WARRENTON*     LGT RAIN  61  57  84 CALM      29.61R

$$

VAZ055>057-210700-
NORTH AND CENTRAL PIEDMONT

CITY           SKY/WX    TMP DP  RH WIND       PRES   REMARKS
FREDERICKSBRG* FAIR      65  60  85 W5        29.60R
STAFFORD*      MOCLDY    62  50  66 W3        29.65R

$$

NCZ024-NYZ072-PAZ021-071-VAZ022-071-210700-
OTHER REGIONAL OBSERVATIONS

CITY           SKY/WX    TMP DP  RH WIND       PRES   REMARKS
NEW YORK CITY  CLOUDY    52  52 100 CALM      29.60S FOG
PHILADELPHIA   LGT RAIN  61  57  87 NW6       29.56R
PITTSBURGH     CLOUDY    49  34  56 W12       29.69R
ROANOKE        FAIR      56  44  64 NW21G30   29.76R
RICHMOND       MOCLDY    67  60  78 SW12      29.63R
RALEIGH        TSTM      62  61  96 SW6       29.71S

$$

ANZ530>537-210700-
MARINE OBSERVATIONS

STATION/POSITION TIME  TEMP    WIND        PRES
                       AIR SEA DIR/SP/G
                 (UTC) (F)     (DEG/KT/KT) (MB)
THOMAS PT LIGHT  0600   63 55  310/ 12/ 13 1002.7R
BALT KEY BRIDGE  0500   64     280/ 10/ 12 1001.2R
COVE POINT       0500   70     230/ 17/ 24 1001.5R
LEWISETTA        0500   70 61              1002.0S
SOLOMONS ISLAND  0500      57                N/A
PINEY POINT      0500          240/ 13/ 18   N/A

$$




USA.gov is the U.S. government's official web portal to all federal, state and local government web resources and services.